Regional Weather Roundup
Issued by NWS New Orleans/Baton Rouge, LA

Home | Current Version | Previous Version | Graphics & Text | Print | Product List | Glossary On
Versions: 1 2 3 4 5 6 7 8 9 10 11 12 13 14 15 16 17 18 19 20 21 22 23 24 25 26 27 28 29 30 31 32 33 34 35 36 37 38 39 40 41 42 43 44 45 46 47 48 49 50
035
ASUS44 KLIX 221705
RWRLIX
NEW ORLEANS REGIONAL WEATHER ROUNDUP
NATIONAL WEATHER SERVICE NEW ORLEANS LA
1100 AM CST SAT NOV 22 2014

NOTE: "FAIR" INDICATES FEW OR NO CLOUDS BELOW 12,000 FEET WITH NO
      SIGNIFICANT WEATHER AND/OR OBSTRUCTIONS TO VISIBILITY.
      SKY/WX - SKY CONDITION AND SIGNIFICANT WEATHER.
      TMP - AIR TEMPERATURE.     DP    - DEWPOINT TEMPERATURE.
      RH  - RELATIVE HUMIDITY.   PRES  - PRESSURE.
      HI  - HEAT INDEX.          WCI   - WIND CHILL INDEX.

*  THESE STATIONS ARE NOT NWS OR FAA STATIONS AND ARE NOT UNDER
   NWS QUALITY CONTROL.

LAZ038-040-048-061>063-065>067-069-221800-
SOUTHEAST LOUISIANA

CITY           SKY/WX    TMP DP  RH WIND       PRES   REMARKS
N.O. AUDUBON     N/A     67  60  77 MISG        N/A
N.O. INTL ARPT CLOUDY    68  58  70 E14G21    30.19F
N.O. LAKEFRONT CLOUDY    65  56  72 E15       30.20F
N.O. DOWNTOWN*   N/A     64  55  72 CALM      30.20F
SLIDELL        PTSUNNY   69  56  62 SE12      30.21F
BATON ROUGE    CLOUDY    66  55  67 E15       30.16F
BOOTHVILLE     CLOUDY    69  64  84 E12       30.20F
BELLE CHASSE   CLOUDY    70  58  65 E16G24    30.18F
BOGALUSA*        N/A     69  52  54 E7        30.23F
NEW ROADS*       N/A     64  55  70 E9G21     30.16F
GONZALES*        N/A     64  56  76 NE7       30.17F
HAMMOND*       CLOUDY    68  54  60 SE9       30.21F
HOUMA*         CLOUDY    70  61  73 E21       30.17F
PORT FOURCHON* SUNNY     68  63  83 E10       30.19F

$$

MSZ070-080>082-221800-
SOUTHERN MISSISSIPPI

CITY           SKY/WX    TMP DP  RH WIND       PRES   REMARKS
MCCOMB         CLOUDY    65  52  62 SE12G17   30.21F
GULFPORT       MOSUNNY   68  55  63 E22       30.22F
BILOXI         MOSUNNY   70  56  59 E16G22    30.22F
PASCAGOULA     MOSUNNY   69  53  56 E10       30.23F
STENNIS ARPT*  SUNNY     66  52  59 SE9G18    30.22F

$$

COASTAL OBSERVATIONS
LAKE AND NEARSHORE STATIONS

STATION/POSITION TIME  TEMP    WIND        PRES    WAVE
                       AIR SEA DIR/SP/G            HT/PER
                 (UTC) (F)     (DEG/KT/KT) (MB)    (FT/S)
PASCAGOULA       1700   63      70/ 16/ 20 1023.4
WAVELAND YACHT   1700   63     110/ 17/ 24 1022.5
GRAND ISLE       1700   66 61   80/  9/ 12 1022.2
SOUTHWEST PASS   1700   71 71              1021.9
NEW CANAL        1700   64 54   80/ 10/ 17 1023.1
SHELL BEACH      1700   64 52   90/ 14/ 17 1022.6

OFFSHORE STATIONS

STATION/POSITION TIME  TEMP    WIND        PRES    WAVE
                       AIR SEA DIR/SP/G            HT/PER
                 (UTC) (F)     (DEG/KT/KT) (MB)    (FT/S)
64 S DAUPHIN ISL 1641   70 73  100/ 19/ 23 1022.9    7/ 7

$$




USA.gov is the U.S. government's official web portal to all federal, state and local government web resources and services.